sat.trackr.live / text

‹ back to catalog

STARLINK-37281

NORAD 68773 · 2026-086H

PAYLOAD ACTIVE UNKNOWN

§ Identity

Operator
Country
US
Launch date
2026-04-19
Launch site
AFWTR
Launch vehicle
Mass (kg)
RCS (m²)

Purposes: comms

External: N2YO · Heavens-Above · Gunter

§ Orbital elements

Epoch: 2026-09-20T04:13:28.889184Z

Period
93.91 min
Inclination
97.2849°
Eccentricity
0.0000964
Mean motion
15.33447479 rev/d
Perigee alt
464.9 km
Apogee alt
466.2 km
Semi-major
6,843.7 km
B*
-4.9152e-5
RAAN
298.5813°
Arg perigee
97.1609°
Mean anomaly
262.9743°
Rev number
2,363

§ Raw data

STARLINK-372811 68773U 26086H   26263.17602881 -.00001662  00000+0 -49152-4 0  99962 68773  97.2849 298.5813 0000964  97.1609 262.9743 15.33447479 23633

JSON: /api/v1/satellites/68773 · /tle

For live sub-satellite position, see the globe view (requires WebGL).

§ Visibility from observer

Set your observer location to see the next 7 days of passes ≥ 10°. The values pass through the URL so the page stays shareable.

No JS? Fill the form by hand. The geolocation button needs JavaScript.